Latest Weather Observations for Mount Boyce

IDN60901

Issued at 8:35 pm EDT Friday 24 October 2014 (issued every 10 minutes, with the page automatically refreshed every 10 minutes)

About weather observations | Map of Sydney area stations | Latest observations for Sydney area | Other Formats
Station Details ID: 063292 Name: MOUNT BOYCE AWS Lat: -33.62 Lon: 150.27 Height: 1080.0 m
Data from the previous 72 hours. | See also: Recent months at Mount Boyce
Date/Time
EDT
Tmp

°C
App
Tmp
°C
Dew
Point
°C
Rel
Hum
%
Delta-T

°C
Wind Press
QNH
hPa
Press
MSL
hPa
Rain
since
9 am
mm
Dir
 
Spd
km/h
Gust
km/h
Spd
kts
Gust
kts
24/08:30pm 20.9 18.4 11.0 53 5.7 N 15 26 8 14 - - 0.0
24/08:00pm 20.1 18.4 11.1 56 5.2 NE 11 19 6 10 - - 0.0
24/07:30pm 20.4 18.6 10.8 54 5.5 NE 11 17 6 9 - - 0.0
24/07:00pm 21.0 19.2 10.8 52 5.9 NE 11 15 6 8 - - 0.0
24/06:30pm 22.0 20.2 10.8 49 6.5 NE 11 19 6 10 - - 0.0
24/06:00pm 22.7 21.4 11.1 48 6.8 ENE 9 15 5 8 - - 0.0
24/05:30pm 23.4 21.7 11.1 46 7.2 NE 11 17 6 9 - - 0.0
24/05:00pm 23.8 22.1 9.8 41 8.0 N 9 20 5 11 - - 0.0
24/04:30pm 24.5 22.3 9.3 38 8.7 NW 11 19 6 10 - - 0.0
24/04:00pm 24.6 21.6 9.3 38 8.7 WNW 15 30 8 16 - - 0.0
24/03:30pm 24.7 20.6 8.6 36 9.1 WNW 20 35 11 19 - - 0.0
24/03:00pm 26.2 24.2 11.5 40 8.8 NNW 13 17 7 9 - - 0.0
24/02:30pm 24.4 19.8 9.6 39 8.5 WNW 24 32 13 17 - - 0.0
24/02:00pm 24.8 22.8 10.3 40 8.4 WNW 11 24 6 13 - - 0.0
24/01:30pm 24.2 21.5 9.0 38 8.6 NW 13 24 7 13 - - 0.0
24/01:00pm 24.9 22.4 9.6 38 8.8 NNW 13 24 7 13 - - 0.0
24/12:30pm 24.3 22.0 9.1 38 8.6 NNW 11 22 6 12 - - 0.0
24/12:00pm 24.0 21.6 9.9 41 8.1 NNW 13 20 7 11 - - 0.0
24/11:30am 22.7 20.4 10.5 46 7.1 N 13 28 7 15 - - 0.0
24/11:00am 21.3 19.7 11.6 54 5.7 NE 11 26 6 14 - - 0.0
24/10:30am 19.5 17.5 10.2 55 5.3 NE 11 22 6 12 - - 0.0
24/10:00am 19.9 17.8 9.8 52 5.7 NNE 11 24 6 13 - - 0.0
24/09:30am 17.9 16.1 9.3 57 4.8 NE 9 13 5 7 - - 0.0
24/09:00am 18.0 15.4 9.4 57 4.8 NE 13 26 7 14 - - 1.2
24/08:30am 17.9 15.4 9.8 59 4.5 NNE 13 28 7 15 - - 1.2
24/08:00am 15.7 13.8 9.1 65 3.6 NW 9 17 5 9 - - 1.2
24/07:30am 14.9 12.9 8.8 67 3.3 NW 9 15 5 8 - - 1.2
24/07:00am 14.3 12.3 8.7 69 3.0 NE 9 15 5 8 - - 1.2
24/06:30am 13.4 12.8 9.1 75 2.3 WSW 2 6 1 3 - - 1.2
24/06:00am 12.6 10.7 9.2 80 1.8 WSW 9 11 5 6 - - 1.2
24/05:30am 12.3 10.5 9.5 83 1.5 SW 9 15 5 8 - - 1.2
24/05:00am 13.6 11.5 9.8 78 2.1 S 11 17 6 9 - - 1.0
24/04:30am 12.6 9.7 9.6 82 1.6 ENE 15 24 8 13 - - 0.8
24/04:00am 12.5 10.1 9.9 84 1.4 W 13 17 7 9 - - 0.8
24/03:30am 11.9 9.2 10.3 90 0.9 WSW 15 19 8 10 - - 0.6
24/03:00am 11.9 9.3 9.3 84 1.4 W 13 20 7 11 - - 0.6
24/02:30am 12.9 12.7 10.4 85 1.4 N 2 7 1 4 - - 0.6
24/02:00am 13.4 12.5 10.8 84 1.4 ENE 6 9 3 5 - - 0.6
24/01:30am 13.3 12.2 10.8 85 1.4 ENE 7 11 4 6 - - 0.6
24/01:00am 13.1 11.5 10.1 82 1.6 ENE 9 13 5 7 - - 0.6
24/12:30am 12.3 10.1 9.3 82 1.6 ENE 11 13 6 7 - - 0.6
24/12:00am 12.3 10.0 9.0 80 1.8 ENE 11 15 6 8 - - 0.6
 
Date/Time
EDT
Tmp

°C
App
Tmp
°C
Dew
Point
°C
Rel
Hum
%
Delta-T

°C
Wind Press
QNH
hPa
Press
MSL
hPa
Rain
since
9 am
mm
Dir
 
Spd
km/h
Gust
km/h
Spd
kts
Gust
kts
23/11:30pm 13.2 10.8 8.7 74 2.4 ENE 11 15 6 8 - - 0.6
23/11:00pm 14.2 12.0 7.7 65 3.4 NE 9 13 5 7 - - 0.6
23/10:30pm 15.2 13.4 8.0 62 3.8 NNE 7 9 4 5 - - 0.6
23/10:00pm 15.1 11.6 8.8 66 3.4 WNW 17 24 9 13 - - 0.6
23/09:30pm 15.1 13.5 8.6 65 3.5 WSW 7 9 4 5 - - 0.6
23/09:00pm 14.9 13.2 8.4 65 3.5 W 7 9 4 5 - - 0.6
23/08:30pm 14.4 12.6 7.9 65 3.4 ENE 7 9 4 5 - - 0.6
23/08:00pm 14.6 12.1 8.3 66 3.4 ENE 11 15 6 8 - - 0.6
23/07:30pm 15.1 11.9 8.3 64 3.6 E 15 26 8 14 - - 0.6
23/07:00pm 15.7 12.7 9.1 65 3.6 E 15 26 8 14 - - 0.6
23/06:30pm 17.0 15.2 10.8 67 3.5 E 11 17 6 9 - - 0.6
23/06:00pm 16.6 15.2 10.9 69 3.2 E 9 13 5 7 - - 0.6
23/05:30pm 18.7 17.1 8.9 53 5.4 ENE 7 13 4 7 - - 0.6
23/05:00pm 19.9 18.1 9.5 51 5.8 E 9 17 5 9 - - 0.6
23/04:30pm 21.7 19.5 9.3 45 7.0 ENE 11 19 6 10 - - 0.6
23/04:00pm 23.4 21.7 9.8 42 7.8 E 9 17 5 9 - - 0.6
23/03:30pm 23.3 21.7 8.6 39 8.3 NE 7 13 4 7 - - 0.6
23/03:00pm 22.0 21.5 13.9 60 4.9 ENE 9 13 5 7 - - 0.6
23/02:30pm 17.1 14.0 9.0 59 4.4 ESE 15 26 8 14 - - 0.6
23/02:00pm 18.1 16.7 9.7 58 4.7 NW 7 11 4 6 - - 0.4
23/01:46pm 17.1 13.0 8.8 58 4.5 NW 20 33 11 18 - - 0.2
23/01:30pm 22.1 19.1 7.5 39 8.0 SW 13 19 7 10 - - 0.0
23/01:00pm 24.7 23.0 11.3 43 7.9 SW 11 19 6 10 - - 0.0
23/12:30pm 23.2 20.8 9.9 43 7.6 WSW 13 24 7 13 - - 0.0
23/12:00pm 21.7 18.7 9.3 45 7.0 SW 15 24 8 13 - - 0.0
23/11:30am 20.6 18.0 9.5 49 6.2 WSW 13 20 7 11 - - 0.0
23/11:00am 20.3 17.3 10.7 54 5.5 W 17 24 9 13 - - 0.0
23/10:30am 18.7 15.8 9.8 56 5.0 W 15 22 8 12 - - 0.0
23/10:00am 18.3 15.1 9.9 58 4.7 W 17 20 9 11 - - 0.0
23/09:30am 17.0 13.8 10.1 64 3.9 W 17 22 9 12 - - 0.0
23/09:00am 16.1 13.2 9.8 66 3.5 W 15 19 8 10 - - 0.0
23/08:30am 16.2 12.9 9.4 64 3.7 W 17 24 9 13 - - 0.0
23/08:00am 15.0 12.5 9.6 70 3.0 W 13 19 7 10 - - 0.0
23/07:30am 15.0 11.3 9.6 70 3.0 W 19 22 10 12 - - 0.0
23/07:00am 14.0 11.1 9.8 76 2.3 W 15 17 8 9 - - 0.0
23/06:30am 14.3 12.2 9.7 74 2.5 W 11 15 6 8 - - 0.0
23/06:00am 14.9 12.8 9.9 72 2.7 W 11 13 6 7 - - 0.0
23/05:30am 14.4 12.4 10.0 75 2.4 W 11 13 6 7 - - 0.0
23/05:00am 15.0 13.0 10.2 73 2.7 W 11 15 6 8 - - 0.0
23/04:30am 14.6 12.6 10.2 75 2.4 W 11 13 6 7 - - 0.0
23/04:00am 14.6 13.1 10.4 76 2.3 W 9 13 5 7 - - 0.0
23/03:30am 14.8 12.9 10.4 75 2.4 W 11 13 6 7 - - 0.0
23/03:00am 15.0 13.5 10.6 75 2.5 W 9 13 5 7 - - 0.0
23/02:30am 14.8 12.9 10.6 76 2.3 W 11 13 6 7 - - 0.0
23/02:00am 15.2 13.3 10.4 73 2.7 W 11 13 6 7 - - 0.0
23/01:30am 14.7 12.7 10.3 75 2.4 W 11 13 6 7 - - 0.0
23/01:00am 15.0 13.1 10.4 74 2.6 W 11 13 6 7 - - 0.0
23/12:30am 14.8 12.8 10.0 73 2.6 W 11 13 6 7 - - 0.0
23/12:00am 15.0 13.4 10.2 73 2.7 W 9 11 5 6 - - 0.0
 
Date/Time
EDT
Tmp

°C
App
Tmp
°C
Dew
Point
°C
Rel
Hum
%
Delta-T

°C
Wind Press
QNH
hPa
Press
MSL
hPa
Rain
since
9 am
mm
Dir
 
Spd
km/h
Gust
km/h
Spd
kts
Gust
kts
22/11:30pm 14.7 12.7 10.3 75 2.4 W 11 13 6 7 - - 0.0
22/11:00pm 15.1 13.1 10.1 72 2.8 W 11 15 6 8 - - 0.0
22/10:30pm 15.0 13.5 10.4 74 2.6 WNW 9 13 5 7 - - 0.0
22/10:00pm 15.2 12.9 9.1 67 3.3 N 11 11 6 6 - - 0.0
22/09:30pm 14.8 12.9 9.2 69 3.0 N 9 13 5 7 - - 0.0
22/09:00pm 14.4 12.6 9.4 72 2.7 NE 9 13 5 7 - - 0.0
22/08:30pm 14.7 12.6 9.7 72 2.7 NE 11 13 6 7 - - 0.0
22/08:00pm 15.1 13.4 9.9 71 2.9 NE 9 13 5 7 - - 0.0
22/07:30pm 15.4 13.7 9.7 69 3.1 NE 9 13 5 7 - - 0.0
22/07:00pm 16.5 14.8 9.9 65 3.7 NE 9 11 5 6 - - 0.0
22/06:30pm 18.0 17.0 10.9 63 4.0 ENE 7 13 4 7 - - 0.0
22/06:00pm 19.2 17.7 10.7 58 4.9 ENE 9 15 5 8 - - 0.0
22/05:30pm 20.1 18.4 11.3 57 5.1 ENE 11 17 6 9 - - 0.0
22/05:00pm 20.3 18.8 10.4 53 5.6 E 9 17 5 9 - - 0.0
22/04:30pm 20.6 19.7 11.2 55 5.4 NE 7 17 4 9 - - 0.0
22/04:00pm 21.4 20.3 9.9 48 6.5 W 6 9 3 5 - - 0.0
22/03:30pm 21.3 19.4 9.2 46 6.8 WSW 9 19 5 10 - - 0.0
22/03:00pm 20.8 19.1 9.7 49 6.3 SSW 9 17 5 9 - - 0.0
22/02:30pm 20.3 17.7 9.2 49 6.2 WSW 13 20 7 11 - - 0.0
22/02:00pm 19.4 16.9 8.4 49 6.0 W 11 20 6 11 - - 0.0
22/01:30pm 18.1 16.0 8.1 52 5.4 WSW 9 15 5 8 - - 0.0
22/01:00pm 17.6 15.3 7.4 51 5.4 W 9 15 5 8 - - 0.0
22/12:30pm 16.6 13.9 7.5 55 4.8 W 11 17 6 9 - - 0.0
22/12:00pm 15.7 14.0 8.4 62 3.9 W 7 13 4 7 - - 0.0
22/11:30am 15.0 13.4 8.7 66 3.4 W 7 15 4 8 - - 0.0
22/11:00am 14.3 12.3 8.5 68 3.1 NNW 9 17 5 9 - - 0.0
22/10:30am 12.8 10.1 7.3 69 2.8 N 11 19 6 10 - - 0.0
22/10:00am 11.9 9.1 7.0 72 2.5 NNE 11 17 6 9 - - 0.0
22/09:30am 10.4 7.1 6.2 75 2.1 NE 13 24 7 13 - - 0.0
22/09:00am 9.4 6.1 6.3 81 1.5 ENE 13 22 7 12 - - 1.6
22/08:30am 8.4 5.9 6.7 89 0.8 NNE 9 19 5 10 - - 1.6
22/08:22am 7.6 4.6 5.9 89 0.8 NNE 11 22 6 12 - - 1.6
22/08:00am 6.7 4.1 6.1 96 0.3 NE 9 19 5 10 - - 1.6
22/07:30am 6.1 3.4 5.5 96 0.3 NNE 9 17 5 9 - - 1.6
22/07:09am 5.9 3.7 5.5 97 0.2 NE 6 11 3 6 - - 1.6
22/07:00am 6.0 3.9 5.6 97 0.2 NE 6 13 3 7 - - 1.6
22/06:30am 5.9 3.7 5.5 97 0.2 NE 6 9 3 5 - - 1.6
22/06:00am 5.8 3.1 5.4 97 0.2 NE 9 15 5 8 - - 1.6
22/05:30am 5.8 3.1 5.4 97 0.2 ENE 9 17 5 9 - - 1.6
22/05:00am 5.9 3.2 5.5 97 0.2 ENE 9 17 5 9 - - 1.4
22/04:30am 6.2 3.9 5.9 98 0.1 ENE 7 13 4 7 - - 1.4
22/04:00am 6.2 4.1 5.9 98 0.1 ENE 6 13 3 7 - - 1.4
22/03:30am 6.3 4.2 6.0 98 0.1 ENE 6 11 3 6 - - 1.4
22/03:00am 6.4 4.2 6.1 98 0.1 ENE 7 13 4 7 - - 1.4
22/02:30am 6.5 4.3 6.2 98 0.1 ENE 7 13 4 7 - - 1.4
22/02:00am 6.8 4.7 6.5 98 0.1 ENE 7 13 4 7 - - 1.4
22/01:30am 6.9 4.8 6.6 98 0.1 ENE 7 9 4 5 - - 1.4
22/01:00am 6.8 4.3 6.5 98 0.1 ENE 9 13 5 7 - - 1.4
22/12:30am 6.8 4.3 6.5 98 0.1 ENE 9 13 5 7 - - 1.4
22/12:00am 6.9 4.4 6.6 98 0.1 ENE 9 15 5 8 - - 1.4
 
Date/Time
EDT
Tmp

°C
App
Tmp
°C
Dew
Point
°C
Rel
Hum
%
Delta-T

°C
Wind Press
QNH
hPa
Press
MSL
hPa
Rain
since
9 am
mm
Dir
 
Spd
km/h
Gust
km/h
Spd
kts
Gust
kts
21/11:57pm 6.9 4.4 6.6 98 0.1 ENE 9 20 5 11 - - 1.4
21/11:30pm 6.9 4.0 6.6 98 0.1 ENE 11 19 6 10 - - 1.4
21/11:00pm 7.0 4.5 6.7 98 0.1 ENE 9 17 5 9 - - 1.2
21/10:30pm 7.1 4.6 6.7 97 0.2 NE 9 17 5 9 - - 1.2
21/10:23pm 7.2 4.8 6.8 97 0.2 ENE 9 17 5 9 - - 1.2
21/10:00pm 7.3 5.4 6.9 97 0.2 ENE 6 11 3 6 - - 1.0
21/09:30pm 7.3 5.3 6.9 97 0.2 ENE 7 11 4 6 - - 1.0
21/09:00pm 7.3 4.9 6.9 97 0.2 ENE 9 13 5 7 - - 1.0
21/08:59pm 7.3 4.9 6.9 97 0.2 ENE 9 17 5 9 - - 1.0

Latest Capital City Observations: Canberra | Sydney | Melbourne | Brisbane | Adelaide | Perth | Hobart | Darwin

Other Formats:

Comma delimited format used in spreadsheet applications
http://www.bom.gov.au/fwo/IDN60901/IDN60901.94743.axf

JavaScript Object Notation format (JSON) in row-major order
http://www.bom.gov.au/fwo/IDN60901/IDN60901.94743.json